| time (UTC) | temp F | wind direction | speed knots | gust knots | rain 1hr in | rain 24hr in | rain mn in | humidity % | barometer mb |
| 20260505184037 | 52 | 138 | 0.0 | 2.6 | 0.01 | 0.33 | 0.29 | 83 | 1009.9 |
| 20260505183020 | 52 | 0.0 | 0.0 | 0.00 | 0.32 | 0.28 | 83 | 1010.1 | |
| 20260505182044 | 53 | 113 | 0.9 | 2.6 | 0.00 | 0.32 | 0.28 | 81 | 1010.3 |
| 20260505181028 | 53 | 0.0 | 0.9 | 0.00 | 0.32 | 0.28 | 78 | 1010.3 | |
| 20260505180033 | 54 | 150 | 0.9 | 2.6 | 0.00 | 0.32 | 0.28 | 79 | 1010.3 |
| 20260505175019 | 54 | 0.0 | 0.0 | 0.00 | 0.32 | 0.28 | 79 | 1010.1 | |
| 20260505174023 | 54 | 158 | 0.0 | 1.7 | 0.00 | 0.33 | 0.28 | 79 | 1010.0 |
| 20260505173027 | 53 | 0.0 | 0.0 | 0.00 | 0.33 | 0.28 | 79 | 1010.0 | |
| 20260505172031 | 53 | 191 | 0.9 | 3.5 | 0.00 | 0.34 | 0.28 | 79 | 1009.7 |
| 20260505171017 | 54 | 194 | 2.6 | 3.5 | 0.00 | 0.35 | 0.28 | 76 | 1009.7 |
| 20260505170021 | 54 | 230 | 0.9 | 4.3 | 0.00 | 0.35 | 0.28 | 73 | 1009.5 |
| 20260505165046 | 55 | 155 | 0.9 | 3.5 | 0.00 | 0.35 | 0.28 | 74 | 1009.4 |
| 20260505164030 | 55 | 177 | 0.9 | 3.5 | 0.00 | 0.35 | 0.28 | 74 | 1009.3 |
| 20260505163016 | 55 | 0.0 | 1.7 | 0.00 | 0.35 | 0.28 | 74 | 1009.2 | |
| 20260505162020 | 55 | 198 | 2.6 | 4.3 | 0.00 | 0.35 | 0.28 | 73 | 1009.0 |
| 20260505161044 | 56 | 188 | 3.5 | 4.3 | 0.00 | 0.35 | 0.28 | 72 | 1008.9 |
| 20260505153016 | 54 | 159 | 1.7 | 4.3 | 0.00 | 0.36 | 0.28 | 77 | 1009.0 |
| 20260505152026 | 54 | 179 | 2.6 | 5.2 | 0.00 | 0.36 | 0.28 | 78 | 1009.2 |
| 20260505151051 | 54 | 152 | 4.3 | 5.2 | 0.00 | 0.36 | 0.28 | 76 | 1008.8 |
| 20260505125016 | 50 | 190 | 1.7 | 4.3 | 0.14 | 0.36 | 0.26 | 91 | 1008.5 |
| 20260505124040 | 50 | 180 | 1.7 | 4.3 | 0.12 | 0.34 | 0.24 | 91 | 1008.9 |
| 20260505123024 | 51 | 90 | 0.0 | 1.7 | 0.06 | 0.28 | 0.18 | 89 | 1009.4 |
| 20260505122028 | 51 | 127 | 2.6 | 4.3 | 0.01 | 0.22 | 0.12 | 88 | 1009.0 |
| 20260505121032 | 52 | 201 | 2.6 | 5.2 | 0.01 | 0.22 | 0.12 | 89 | 1008.2 |
| 20260505120018 | 52 | 0.0 | 0.0 | 0.02 | 0.22 | 0.12 | 89 | 1007.5 | |
| 20260505115023 | 52 | 162 | 0.9 | 2.6 | 0.02 | 0.22 | 0.12 | 88 | 1007.1 |
| 20260505114047 | 53 | 175 | 3.5 | 4.3 | 0.02 | 0.22 | 0.12 | 89 | 1007.1 |
| 20260505113031 | 53 | 0.0 | 0.0 | 0.02 | 0.22 | 0.12 | 90 | 1007.3 | |
| 20260505112017 | 54 | 171 | 0.9 | 3.5 | 0.01 | 0.21 | 0.11 | 90 | 1007.1 |
| 20260505111021 | 54 | 202 | 0.9 | 5.2 | 0.01 | 0.21 | 0.11 | 92 | 1007.3 |
| 20260505102038 | 55 | 201 | 2.6 | 4.3 | 0.09 | 0.20 | 0.10 | 87 | 1006.8 |
| 20260505101016 | 57 | 248 | 0.9 | 4.3 | 0.09 | 0.20 | 0.10 | 88 | 1006.6 |
| 20260505100052 | 58 | 34 | 1.7 | 4.3 | 0.08 | 0.19 | 0.09 | 93 | 1007.0 |
| 20260505095018 | 59 | 149 | 0.9 | 4.3 | 0.03 | 0.14 | 0.04 | 93 | 1006.1 |
| 20260505094022 | 59 | 0.0 | 0.0 | 0.03 | 0.14 | 0.04 | 93 | 1006.1 | |
| 20260505093026 | 60 | 118 | 0.9 | 2.6 | 0.01 | 0.12 | 0.02 | 92 | 1006.3 |
| 20260505092030 | 60 | 0.0 | 0.0 | 0.00 | 0.11 | 0.01 | 91 | 1005.5 | |
| 20260505091017 | 60 | 0.0 | 0.0 | 0.00 | 0.11 | 0.01 | 90 | 1005.2 | |
| 20260505090041 | 60 | 0.0 | 0.0 | 0.00 | 0.11 | 0.01 | 90 | 1005.0 | |
| 20260505085025 | 60 | 0.0 | 0.0 | 0.00 | 0.11 | 0.01 | 90 | 1005.0 | |
| 20260505084029 | 60 | 322 | 1.7 | 2.6 | 0.00 | 0.11 | 0.01 | 90 | 1005.0 |
| 20260505083015 | 60 | 0.0 | 0.0 | 0.00 | 0.11 | 0.01 | 90 | 1004.9 | |
| 20260505082039 | 60 | 9 | 1.7 | 2.6 | 0.00 | 0.11 | 0.01 | 90 | 1004.6 |
| 20260505081023 | 60 | 0.0 | 0.0 | 0.00 | 0.11 | 0.01 | 90 | 1004.5 | |
| 20260505080027 | 60 | 0.0 | 0.0 | 0.01 | 0.11 | 0.01 | 89 | 1004.3 | |
| 20260505075032 | 60 | 0.0 | 0.0 | 0.01 | 0.11 | 0.01 | 89 | 1004.7 | |
| 20260505074018 | 60 | 0.0 | 0.0 | 0.01 | 0.11 | 0.01 | 88 | 1004.9 | |
| 20260505073022 | 61 | 0.0 | 0.0 | 0.01 | 0.11 | 0.01 | 87 | 1005.2 | |
| 20260505072027 | 61 | 0.0 | 0.0 | 0.01 | 0.11 | 0.01 | 85 | 1005.3 | |
| 20260505071030 | 62 | 0.0 | 0.0 | 0.01 | 0.11 | 0.01 | 83 | 1005.8 | |
| 20260505070036 | 63 | 0.0 | 0.0 | 0.00 | 0.10 | 0.00 | 83 | 1006.1 | |
| 20260505065021 | 64 | 145 | 1.7 | 4.3 | 0.00 | 0.10 | 0.00 | 82 | 1006.0 |
| 20260505064024 | 66 | 179 | 7.0 | 12.2 | 0.00 | 0.10 | 0.00 | 71 | 1005.2 |
| 20260505063029 | 70 | 91 | 5.2 | 14.8 | 0.00 | 0.10 | 0.00 | 64 | 1004.0 |
| 20260505062015 | 70 | 59 | 4.3 | 6.1 | 0.00 | 0.10 | 0.00 | 64 | 1003.6 |
| 20260505061019 | 70 | 26 | 3.5 | 5.2 | 0.00 | 0.10 | 0.00 | 64 | 1003.2 |
| 20260505060023 | 70 | 10 | 4.3 | 6.1 | 0.00 | 0.10 | 0.00 | 64 | 1003.1 |
| 20260505055027 | 71 | 2 | 4.3 | 6.1 | 0.00 | 0.10 | 0.00 | 64 | 1002.8 |
| 20260505054025 | 71 | 355 | 4.3 | 6.1 | 0.00 | 0.10 | 0.00 | 64 | 1002.8 |
| 20260505053018 | 71 | 357 | 3.5 | 6.1 | 0.00 | 0.10 | 0.00 | 63 | 1002.8 |
| 20260505052022 | 71 | 344 | 4.3 | 6.1 | 0.00 | 0.10 | 0.00 | 63 | 1002.9 |
| 20260505051020 | 71 | 359 | 5.2 | 7.0 | 0.00 | 0.10 | 0.00 | 63 | 1002.8 |
| 20260505041032 | 71 | 355 | 4.3 | 6.1 | 0.00 | 0.10 | 0.10 | 63 | 1002.3 |
| 20260505040039 | 71 | 328 | 4.3 | 7.0 | 0.00 | 0.10 | 0.10 | 63 | 1002.4 |
| 20260505035043 | 72 | 5 | 3.5 | 5.2 | 0.00 | 0.10 | 0.10 | 63 | 1002.5 |
| 20260505034027 | 72 | 344 | 4.3 | 6.1 | 0.00 | 0.10 | 0.10 | 63 | 1002.6 |
| 20260505033051 | 72 | 13 | 3.5 | 6.1 | 0.00 | 0.10 | 0.10 | 63 | 1002.6 |
| 20260505032017 | 72 | 345 | 3.5 | 5.2 | 0.00 | 0.10 | 0.10 | 62 | 1002.6 |
| 20260505031021 | 73 | 333 | 3.5 | 4.3 | 0.00 | 0.10 | 0.10 | 61 | 1002.6 |
| 20260505030025 | 73 | 349 | 3.5 | 4.3 | 0.00 | 0.10 | 0.10 | 61 | 1002.5 |
| 20260505025029 | 73 | 360 | 4.3 | 6.1 | 0.00 | 0.10 | 0.10 | 60 | 1002.3 |
| 20260505024036 | 74 | 320 | 5.2 | 7.0 | 0.00 | 0.10 | 0.10 | 59 | 1002.1 |
| 20260505023020 | 74 | 317 | 4.3 | 7.0 | 0.00 | 0.10 | 0.10 | 59 | 1001.9 |
| 20260505022024 | 74 | 10 | 4.3 | 7.8 | 0.00 | 0.10 | 0.10 | 58 | 1001.7 |
| 20260505021028 | 74 | 355 | 4.3 | 6.1 | 0.00 | 0.10 | 0.10 | 57 | 1001.4 |
| 20260505020032 | 75 | 346 | 4.3 | 5.2 | 0.00 | 0.10 | 0.10 | 57 | 1001.4 |
| 20260505015018 | 75 | 3 | 4.3 | 5.2 | 0.00 | 0.10 | 0.10 | 57 | 1001.3 |
| 20260505014022 | 75 | 359 | 4.3 | 6.1 | 0.00 | 0.10 | 0.10 | 57 | 1001.2 |
| 20260505013107 | 75 | 16 | 3.5 | 5.2 | 0.00 | 0.10 | 0.10 | 58 | 1001.2 |
| 20260505012031 | 75 | 344 | 4.3 | 5.2 | 0.00 | 0.10 | 0.10 | 58 | 1001.1 |
| 20260505011017 | 75 | 330 | 4.3 | 5.2 | 0.00 | 0.10 | 0.10 | 58 | 1001.1 |
| 20260505010021 | 75 | 339 | 5.2 | 6.1 | 0.00 | 0.10 | 0.10 | 58 | 1000.9 |
| 20260505005025 | 75 | 25 | 3.5 | 5.2 | 0.00 | 0.10 | 0.10 | 61 | 1000.8 |
| 20260505004029 | 74 | 344 | 3.5 | 4.3 | 0.00 | 0.10 | 0.10 | 65 | 1000.8 |
| 20260505003015 | 74 | 336 | 2.6 | 3.5 | 0.00 | 0.10 | 0.10 | 67 | 1000.8 |
| 20260505002019 | 74 | 323 | 2.6 | 3.5 | 0.00 | 0.10 | 0.10 | 67 | 1000.8 |
| 20260505001023 | 74 | 334 | 2.6 | 3.5 | 0.00 | 0.10 | 0.10 | 67 | 1000.9 |
| 20260505000022 | 73 | 329 | 2.6 | 3.5 | 0.00 | 0.10 | 0.10 | 67 | 1000.9 |
| 20260504235020 | 72 | 0.0 | 0.0 | 0.00 | 0.10 | 0.10 | 74 | 1000.9 | |
| 20260504234018 | 72 | 0.0 | 0.0 | 0.00 | 0.10 | 0.10 | 73 | 1001.1 | |
| 20260504233036 | 73 | 0.0 | 0.0 | 0.00 | 0.10 | 0.10 | 70 | 1001.3 | |
| 20260504232046 | 73 | 180 | 0.0 | 0.9 | 0.00 | 0.10 | 0.10 | 70 | 1000.6 |
| 20260504231030 | 74 | 331 | 3.5 | 5.2 | 0.00 | 0.10 | 0.10 | 63 | 1000.9 |
| 20260504230016 | 75 | 340 | 5.2 | 6.1 | 0.00 | 0.10 | 0.10 | 60 | 1001.4 |
| 20260504225021 | 75 | 357 | 4.3 | 6.1 | 0.00 | 0.10 | 0.10 | 59 | 1001.7 |
| 20260504224025 | 76 | 327 | 4.3 | 5.2 | 0.00 | 0.10 | 0.10 | 58 | 1001.9 |
| 20260504223028 | 77 | 335 | 4.3 | 7.0 | 0.00 | 0.10 | 0.10 | 58 | 1002.1 |
| 20260504222153 | 76 | 341 | 3.5 | 4.3 | 0.00 | 0.10 | 0.10 | 57 | 1002.2 |
| 20260504221019 | 77 | 343 | 5.2 | 7.0 | 0.00 | 0.10 | 0.10 | 56 | 1002.2 |
| 20260504220023 | 78 | 3 | 4.3 | 7.0 | 0.00 | 0.10 | 0.10 | 56 | 1002.0 |
| 20260504215047 | 78 | 349 | 4.3 | 6.1 | 0.03 | 0.10 | 0.10 | 56 | 1001.9 |
| 20260504214051 | 79 | 332 | 6.1 | 7.8 | 0.03 | 0.10 | 0.10 | 54 | 1001.9 |
| 20260504213017 | 78 | 344 | 6.1 | 7.8 | 0.03 | 0.10 | 0.10 | 54 | 1002.1 |
| 20260504212021 | 78 | 333 | 7.0 | 9.6 | 0.03 | 0.10 | 0.10 | 55 | 1002.2 |
| 20260504211025 | 78 | 336 | 7.0 | 10.4 | 0.03 | 0.10 | 0.10 | 55 | 1002.3 |
| 20260504210050 | 78 | 330 | 7.8 | 11.3 | 0.03 | 0.10 | 0.10 | 56 | 1002.4 |
| 20260504205016 | 79 | 349 | 7.0 | 8.7 | 0.01 | 0.07 | 0.07 | 57 | 1002.6 |
| 20260504204020 | 78 | 341 | 6.1 | 7.8 | 0.01 | 0.07 | 0.07 | 59 | 1002.8 |
| 20260504203024 | 75 | 338 | 5.2 | 7.0 | 0.01 | 0.07 | 0.07 | 63 | 1003.0 |
| 20260504202049 | 76 | 343 | 6.1 | 7.8 | 0.01 | 0.07 | 0.07 | 61 | 1003.0 |
| 20260504201032 | 77 | 347 | 5.2 | 7.8 | 0.01 | 0.07 | 0.07 | 59 | 1003.1 |
| 20260504200018 | 77 | 342 | 7.0 | 7.8 | 0.01 | 0.07 | 0.07 | 58 | 1003.3 |
| 20260504195023 | 76 | 334 | 3.5 | 5.2 | 0.00 | 0.06 | 0.06 | 60 | 1003.3 |
| 20260504194047 | 73 | 26 | 0.9 | 3.5 | 0.00 | 0.06 | 0.06 | 67 | 1003.1 |
| 20260504193031 | 68 | 293 | 0.9 | 2.6 | 0.00 | 0.06 | 0.06 | 73 | 1002.7 |
| 20260504192017 | 68 | 0.0 | 0.0 | 0.00 | 0.06 | 0.06 | 74 | 1002.9 | |
| 20260504191021 | 69 | 149 | 0.9 | 3.5 | 0.00 | 0.06 | 0.06 | 73 | 1003.9 |
| 20260504190026 | 69 | 341 | 1.7 | 3.5 | 0.00 | 0.06 | 0.06 | 71 | 1004.3 |
| 20260504185024 | 69 | 319 | 2.6 | 4.3 | 0.00 | 0.06 | 0.06 | 70 | 1004.5 |